Chattanooga, TN

1:15 PM EDT on June 25, 2017 (GMT -0400)
Lovell

Weather History for KCHA - March, 2013

Change the Weather History Date:

Friday, March 29, 2013

  Actual Average Record
Temperature  
Mean Temperature 47 °F 56 °F  
Max Temperature 59 °F 68 °F 86 °F (1928)
Min Temperature 35 °F 44 °F 25 °F (1887)
Degree Days  
Heating Degree Days 18 10  
Month to date heating degree days 536 385  
Since 1 July heating degree days 2852 3007  
Cooling Degree Days 0 0  
Month to date cooling degree days 3 0  
Year to date cooling degree days 5 0  
Moisture  
Dew Point 35 °F    
Average Humidity 64    
Maximum Humidity 92    
Minimum Humidity 36    
Precipitation  
Precipitation 0.01 in 0.17 in 3.20 in (1886)
Month to date precipitation 3.69 4.67  
Year to date precipitation 17.37 14.42  
Snow  
Snow 0.00 in 0.00 in - ()
Month to date snowfall T 1.2  
Since 1 July snowfall 0.3 3.8  
Snow Depth 0.00 in    
Sea Level Pressure  
Sea Level Pressure 30.30 in    
Wind  
Wind Speed 5 mph (North)    
Max Wind Speed 16 mph    
Max Gust Speed 18 mph    
Visibility 10 miles    
Events      
T = Trace of Precipitation, MM = Missing Value Source: NWS Daily Summary

Daily Weather History Graph

Daily Weather History Graph

Search for Another Location

Airport or City:

Trip Planner

Search our weather history database for the weather conditions in past years. The results will help you decide how hot, cold, wet, or windy it might be!

Date:

Astronomy

Mar. 29, 2013 Rise Set
Actual Time 7:31 AM EDT 7:59 PM EDT
Civil Twilight 7:06 AM EDT 8:25 PM EDT
Nautical Twilight 6:36 AM EDT 8:55 PM EDT
Astronomical Twilight 6:05 AM EDT 9:25 PM EDT
Moon 10:51 PM EDT (3/29) 8:46 AM EDT (3/29)
Length of Visible Light 13h 19m
Length of Day
12h 28m
Waning Gibbous, 93% of the Moon is Illuminated
Mar 29
Waning Gibbous
Apr 3
Last Quarter
Apr 10
New
Apr 18
First Quarter
Apr 25
Full

Hourly Weather History & Observations

Time (EDT) Temp. Windchill Dew Point Humidity Pressure Visibility Wind Dir Wind Speed Gust Speed Precip Events Conditions
12:53 AM 39.9 °F - 37.0 °F 89% 30.32 in 10.0 mi Calm Calm - N/A   Clear
1:53 AM 39.0 °F 35.7 °F 35.1 °F 86% 30.32 in 10.0 mi North 4.6 mph - N/A   Partly Cloudy
2:53 AM 41.0 °F - 35.1 °F 79% 30.32 in 10.0 mi Calm Calm - N/A   Overcast
3:53 AM 41.0 °F - 36.0 °F 82% 30.31 in 10.0 mi Calm Calm - N/A   Overcast
4:53 AM 39.0 °F - 35.1 °F 86% 30.31 in 10.0 mi Calm Calm - N/A   Scattered Clouds
5:53 AM 37.9 °F - 34.0 °F 86% 30.31 in 10.0 mi Calm Calm - N/A   Scattered Clouds
6:53 AM 36.0 °F - 34.0 °F 93% 30.32 in 10.0 mi Calm Calm - N/A   Scattered Clouds
7:53 AM 37.0 °F - 34.0 °F 89% 30.33 in 10.0 mi Calm Calm - N/A   Mostly Cloudy
8:53 AM 39.9 °F - 36.0 °F 86% 30.34 in 10.0 mi Calm Calm - N/A   Mostly Cloudy
9:53 AM 42.1 °F - 36.0 °F 79% 30.36 in 10.0 mi Calm Calm - N/A   Mostly Cloudy
10:53 AM 46.9 °F - 32.0 °F 56% 30.36 in 10.0 mi NNE 5.8 mph - N/A   Overcast
11:53 AM 48.9 °F - 30.0 °F 48% 30.36 in 10.0 mi NNE 8.1 mph - N/A   Overcast
12:53 PM 50.0 °F - 30.9 °F 48% 30.35 in 10.0 mi North 5.8 mph - N/A   Overcast
1:53 PM 54.0 °F - 32.0 °F 43% 30.32 in 10.0 mi Calm Calm - N/A   Overcast
2:53 PM 57.9 °F - 30.9 °F 36% 30.29 in 10.0 mi North 8.1 mph - 0.01 in   Mostly Cloudy
3:53 PM 57.0 °F - 30.9 °F 37% 30.27 in 10.0 mi North 9.2 mph - N/A   Mostly Cloudy
4:53 PM 57.0 °F - 33.1 °F 40% 30.24 in 10.0 mi NNE 10.4 mph - N/A   Mostly Cloudy
5:53 PM 55.0 °F - 35.1 °F 47% 30.24 in 10.0 mi North 9.2 mph - N/A   Overcast
6:53 PM 51.1 °F - 37.9 °F 61% 30.23 in 10.0 mi North 12.7 mph - N/A   Overcast
7:53 PM 48.9 °F - 39.9 °F 71% 30.23 in 10.0 mi North 10.4 mph - N/A   Overcast
8:53 PM 48.0 °F - 41.0 °F 77% 30.23 in 10.0 mi North 9.2 mph - N/A   Mostly Cloudy
9:53 PM 46.9 °F - 42.1 °F 83% 30.24 in 10.0 mi North 9.2 mph - N/A   Mostly Cloudy
10:53 PM 46.9 °F - 42.1 °F 83% 30.25 in 10.0 mi North 8.1 mph - N/A   Mostly Cloudy
11:53 PM 46.9 °F - 41.0 °F 80% 30.25 in 10.0 mi North 8.1 mph - N/A   Mostly Cloudy